DW4707 Campi Bisenzio - Firenze IT current weather conditions

sailwx.info

Last reported at 2014-Oct-19 14:33 UTC.
Time now 2014-Oct-25 07:58 UTC

Location: N 43°50' E 011°08'.
View on Google Maps.

See reports from other nearby stations

  
Tides and Currents Weather Stations Pressure Air Temp Water Temp Dewpoint Dewpoint Depression Visibility Wind Speed Wind Dir Waves Ship Positions
date/time (UTC)wind fromknots sea level pressurealtimeterstation pressurevisibilityair tempwater tempwave heightnotes
2014-Oct-25 06:46 338 9.4
2014-Oct-25 06:36 180 9.4
2014-Oct-25 06:26 8.9
2014-Oct-25 06:16 338 8.9
2014-Oct-25 06:06 022 8.9
2014-Oct-25 05:56 178 8.9
2014-Oct-25 05:46 022 8.9
2014-Oct-25 05:36 180 8.9
2014-Oct-25 05:26 022 8.9
2014-Oct-25 05:16 187 8.9
2014-Oct-25 05:06 135 8.9
2014-Oct-25 04:56 022 8.9
2014-Oct-25 04:46 202 8.9
2014-Oct-25 04:36 007 8.9
2014-Oct-25 04:26 135 8.9
2014-Oct-25 04:16 202 8.9
2014-Oct-25 04:06 180 8.9
2014-Oct-25 03:56 090 8.9
2014-Oct-25 03:46 202 8.9
2014-Oct-25 03:36 138 9.4
2014-Oct-25 03:26 158 9.4
2014-Oct-25 03:16 202 9.4
2014-Oct-25 03:06 123 9.4
2014-Oct-25 02:56 277 9.4
2014-Oct-25 02:46 180 9.4
2014-Oct-25 02:36 022 10.0
2014-Oct-25 02:26 015 10.0
2014-Oct-25 02:16 248 10.0
2014-Oct-25 02:06 194 10.0
2014-Oct-25 01:56 205 10.0
2014-Oct-25 01:46 202 10.0
2014-Oct-25 01:36 022 10.0
2014-Oct-25 01:26 022 10.0
2014-Oct-25 01:16 202 10.0
2014-Oct-25 01:06 095 10.0
2014-Oct-25 00:56 022 10.6
2014-Oct-25 00:46 045 10.6
2014-Oct-25 00:36 225 10.6
2014-Oct-25 00:26 226 10.6
2014-Oct-25 00:16 270 11.1
2014-Oct-25 00:06 270 11.1
2014-Oct-24 23:56 270 11.1
2014-Oct-24 23:46 315 11.1
2014-Oct-24 23:36 202 11.1
2014-Oct-24 23:26 202 11.1
2014-Oct-24 23:16 180 11.1
2014-Oct-24 23:06 180 11.1
2014-Oct-24 22:56 180 11.1
2014-Oct-24 22:46 180 11.1
2014-Oct-24 22:36 196 11.1
2014-Oct-24 22:26 202 11.7
2014-Oct-24 22:16 180 11.7
2014-Oct-24 22:06 180 11.7
2014-Oct-24 21:56 180 11.7
2014-Oct-24 21:46 180 12.2
2014-Oct-24 21:36 180 12.2
2014-Oct-24 21:26 022 12.8
2014-Oct-24 21:16 022 12.8
2014-Oct-24 21:06 149 12.2
2014-Oct-24 20:56 158 12.8
2014-Oct-24 20:46 180 12.8
2014-Oct-24 20:36 180 12.8
2014-Oct-24 20:26 180 13.3
2014-Oct-24 20:16 180 13.3
2014-Oct-24 20:06 180 13.3
2014-Oct-24 19:56 334 13.9
2014-Oct-24 19:46 180 13.9
2014-Oct-24 19:36 180 14.4
2014-Oct-24 19:26 181 14.4
2014-Oct-24 19:16 022 14.4
2014-Oct-24 19:06 022 15.6
2014-Oct-24 18:56 026 15.0
2014-Oct-24 18:46 112 15.0
2014-Oct-24 18:36 112 15.0
2014-Oct-24 18:26 338 15.6
2014-Oct-24 18:16 16.1
2014-Oct-24 18:06 16.1
2014-Oct-24 17:56 022 17.2
2014-Oct-24 17:46 022 17.2
2014-Oct-24 17:36 17.2
2014-Oct-24 17:26 022 17.2
2014-Oct-24 17:16 022 17.8
2014-Oct-24 17:06 180 17.8
2014-Oct-24 16:56 233 17.8
2014-Oct-24 16:46 315 18.3
2014-Oct-24 16:36 022 18.9
2014-Oct-24 16:26 236 19.4
2014-Oct-24 16:16 202 20.0
2014-Oct-24 16:06 202 20.6
2014-Oct-24 15:56 318 21.1
2014-Oct-24 15:46 022 21.1
2014-Oct-24 15:36 044 21.7
2014-Oct-24 15:26 353 21.7
2014-Oct-24 15:16 315 0 gusting 1 21.7
2014-Oct-24 15:06 068 22.2
2014-Oct-24 14:56 045 0 gusting 2 22.2
2014-Oct-24 14:46 045 0 gusting 2 22.2
2014-Oct-24 14:16 22.8
2014-Oct-24 14:06 022 22.8
2014-Oct-24 13:56 082 1 gusting 2 22.8
2014-Oct-24 13:46 024 22.8
2014-Oct-24 13:36 022 22.8
2014-Oct-24 13:26 028 0 gusting 1 22.8
2014-Oct-24 13:16 022 22.8
2014-Oct-24 00:56 315 13.3
2014-Oct-24 00:46 191 13.3
2014-Oct-24 00:36 348 13.3
2014-Oct-24 00:26 315 13.3
2014-Oct-24 00:16 225 13.9
2014-Oct-24 00:06 021 13.9
2014-Oct-23 23:56 045 13.3
2014-Oct-23 23:46 13.3
2014-Oct-23 23:36 12.8
2014-Oct-23 23:26 202 12.8
2014-Oct-23 23:16 289 13.3
2014-Oct-23 23:06 113 13.3
2014-Oct-23 22:56 158 13.3
2014-Oct-23 22:46 041 13.3
2014-Oct-23 22:36 022 13.3
2014-Oct-23 22:26 022 13.3
2014-Oct-23 22:16 202 13.3
2014-Oct-23 22:06 194 12.8
2014-Oct-23 21:56 112 13.3
2014-Oct-23 21:46 158 13.3
2014-Oct-23 21:36 144 13.3
2014-Oct-23 21:26 045 13.3
2014-Oct-23 21:16 162 13.3
2014-Oct-23 21:06 137 13.3
2014-Oct-23 20:56 202 13.3
2014-Oct-23 20:46 202 13.3
2014-Oct-23 20:36 283 13.3
2014-Oct-23 20:26 202 13.3
2014-Oct-23 20:16 291 13.9
2014-Oct-23 20:06 338 13.9
2014-Oct-23 19:56 202 14.4
2014-Oct-23 19:46 090 15.0
2014-Oct-23 19:36 158 14.4
2014-Oct-23 19:26 135 14.4
2014-Oct-23 19:16 14.4
2014-Oct-23 19:06 14.4
2014-Oct-23 18:46 315 15.0
2014-Oct-23 18:26 315 15.6
2014-Oct-23 18:16 292 16.1
2014-Oct-23 18:06 040 16.7
2014-Oct-23 17:56 022 0 gusting 1 16.7
2014-Oct-23 17:46 022 16.7
2014-Oct-23 17:36 009 17.2
2014-Oct-23 17:26 045 17.8
2014-Oct-23 17:16 022 17.8
2014-Oct-23 17:06 17.8
2014-Oct-23 16:56 270 18.3
2014-Oct-23 16:46 022 3 gusting 4 18.3
2014-Oct-23 16:36 009 0 gusting 2 18.3
2014-Oct-23 16:26 18.9
2014-Oct-23 16:16 112 19.4
2014-Oct-23 16:06 19.4
2014-Oct-23 15:56 022 0 gusting 1 19.4
2014-Oct-23 15:46 270 0 gusting 1 20.0
2014-Oct-23 15:36 035 0 gusting 0 20.0
2014-Oct-23 15:26 338 19.4
2014-Oct-23 15:16 180 19.4
2014-Oct-23 15:06 032 19.4
2014-Oct-23 14:56 090 19.4
2014-Oct-23 14:46 022 19.4
2014-Oct-23 14:36 022 18.9
2014-Oct-23 14:26 022 18.9
2014-Oct-23 14:16 022 18.9
2014-Oct-23 14:06 143 18.9
2014-Oct-23 13:56 022 18.9
2014-Oct-23 13:46 022 18.9
2014-Oct-23 13:36 022 18.3
2014-Oct-23 13:26 035 18.3
2014-Oct-23 13:16 18.3
2014-Oct-23 13:06 031 17.8
2014-Oct-23 12:56 045 17.8
2014-Oct-23 12:46 022 17.8
2014-Oct-23 12:36 043 17.8
2014-Oct-23 12:26 102 17.8
2014-Oct-23 12:16 022 17.8
2014-Oct-23 12:06 067 17.8
2014-Oct-23 11:56 045 17.8
2014-Oct-23 11:46 202 17.8
2014-Oct-23 11:36 033 17.2
2014-Oct-23 11:26 045 17.2
2014-Oct-23 11:16 022 17.2
2014-Oct-23 11:06 070 17.2
2014-Oct-23 10:56 17.2
2014-Oct-23 10:46 16.7
2014-Oct-23 10:36 158 15.6
2014-Oct-23 10:26 180 15.0
2014-Oct-23 10:16 045 14.4
2014-Oct-23 10:06 022 13.9
2014-Oct-23 09:56 090 13.3
2014-Oct-23 09:46 13.3
2014-Oct-23 09:36 202 12.8
2014-Oct-23 09:26 12.2
2014-Oct-23 09:16 202 12.2
2014-Oct-23 09:06 068 12.2
2014-Oct-23 08:56 180 12.2
2014-Oct-23 08:46 090 13.3
2014-Oct-23 08:36 158 13.3
2014-Oct-23 08:26 034 12.2
2014-Oct-23 08:16 085 11.7
2014-Oct-23 08:06 112 11.7
2014-Oct-23 07:56 056 10.6
2014-Oct-23 07:46 8.9
2014-Oct-23 07:36 338 8.3
2014-Oct-23 07:26 270 7.8
2014-Oct-23 07:16 135 7.8
2014-Oct-23 07:06 112 7.2